CZ-2D DEB

Satellite information

Favourite Embed

Satellite Type and Status

DEBRISIN ORBIT

Key statistics

Satellite CZ-2D DEB at a glance.

Uptime

4784

Days in orbit

Revolutions

≈ 14.4

Per day

Orbit

SSO

Sun Synchronous Orbit

Inclination

98.1

Latest

Satellite identification and parameters

Extended collection of information and parameters for CZ-2D DEB.

Object identification

Identified? True

Debris? True

Object name: CZ-2D DEB

International designator: 2012-052B

Object number (NORAD): 43402

Object ID (CCSDS): 43402

Country: PEOPLES REPUBLIC OF CHINA (PRC)

Current information (Y/N): Y

RCS size: SMALL

Orbital parameters

Period: 100.127 minutes

Inclination: 98.0806 deg

SMA: 7142.69 km

Apoapsis: 912.996 km

Periapsis: 616.114 km

RAAN: 50.9304 deg

Eccentricy: 0.02078225

Argument of periapsis: 13.6045 deg

Mean anomaly: 347.0628 deg

Mean motion: 14.38169506 rev/day

Mean motion (dot): 0.00002191 rev/day2

B* drag term: 0.00057390837 1/REarth

Two-line elements (TLE)

Creation date: Nov. 2, 2025, 5:34 p.m.

Reference frame: TEME

Reference center: EARTH

Epoch: Nov. 2, 2025, 5:46 a.m. UTC

TLE line 0: 0 CZ-2D DEB

TLE line 1: 1 43402U 12052B 25306.24090430 .00002191 00000-0 57391-3 0 9992

TLE line 2: 2 43402 98.0806 50.9304 0207823 13.6045 347.0628 14.38169506622135

Live tracking on map

Real-time ground track for satellite CZ-2D DEB.

In-orbit conjunctions

A list of the most updated potential collisions computed for object CZ-2D DEB.

Target Orbit TCA Probability of collision Miss distance Type
OAO 3 (COPERNICUS) LEO 2025-01-03 23:54:45 0.0001542334 782.0 (m) PAYLOAD

Associated space launch

CZ-2D DEB was lifted into orbit during the mission ‘Long March 2D | VRSS-1’, on board a Long March 2D space rocket.

The launch took place on Sept. 29, 2012, 4:12 a.m. from Launch Area 4 (SLS-2 / 603).

For more information about the launch, click the button.

Launch to space Long March 2D | VRSS-1
Long March 2D | VRSS-1

Agency: N/A

Status: Launch Successful

Launch date: Sept. 29, 2012, 4:12 a.m. UTC

Rocket: Long March 2D

Launch pad: Launch Area 4 (SLS-2 / 603)

Location: Jiuquan Satellite Launch Center, People's Republic of China

...

Latest news about this satellite

There are no fresh news available about this satellite. Check back as we update our databases every day.


Newsletter sign-up

Weekly statistics, charts and insights to help you stay on top of the space industry.